Flag for U.S.A. Weather past 2 weeks in Leesburg, Virginia, U.S.A.

Now
75 °F

Scattered clouds.


Feels Like: 74 °F
Forecast: 64 / 84 °F
Wind: 8 mph from Northeast

Location: Leesburg / Godfrey

Current Time: Jul 4, 2015 at 8:46:53 PM

Latest Report: Jul 4, 2015 at 8:15 PM


Visibility: 10 mi

Pressure: 29.98 "Hg

Humidity: 94%

Dew point: 73 °F

Location of LeesburgLocation

Historic Weather in Leesburg — Graph

°F

Leesburg temperature yesterday

Maximum temperature yesterday: 81 °F (at 12:15 PM)
Minimum temperature yesterday: 61 °F (at 3:55 AM)
Average temperature yesterday: 72 °F

Past Weeks' High & Low Weather Summary

 TemperatureHumidityPressure
High97 °F (Jun 23, 3:55 PM)100% (Jun 19, 9:55 PM)30.13 "Hg (Jun 19, 9:55 PM)
Low55 °F (Jun 29, 5:35 AM)37% (Jun 29, 4:15 PM)29.69 "Hg (Jun 28, 2:35 AM)
Average74 °F80%29.94 "Hg
* Reported Jun 19 7:15 PM — Jul 4 7:35 PM, Leesburg, Weather by CustomWeather, © 2015

Note: Actual official high and low records may vary slightly from our data, if they occured in-between our weather recording intervals... More about our weather records

Advertising

Leesburg weather history for previous 24 hours

 ConditionsComfort  
Time TempWeatherWind HumidityBarometerVisibility
7:35 PM
Sat, Jul 4
77 °FSunny.5 mph89%29.97 "Hg10 mi
7:15 PM77 °FScattered clouds.7 mph89%29.96 "Hg10 mi
6:55 PM77 °FScattered clouds.6 mph89%29.95 "Hg10 mi
6:35 PM77 °FScattered clouds.6 mph89%29.95 "Hg10 mi
6:15 PM77 °FBroken clouds.5 mph89%29.95 "Hg10 mi
5:55 PM75 °FMore clouds than sun.9 mph100%29.94 "Hg7 mi
5:15 PM73 °FBroken clouds.6 mph100%29.94 "Hg10 mi
4:55 PM73 °FScattered clouds.3 mph100%29.94 "Hg10 mi
4:15 PM72 °FThundershowers. Cloudy.No wind100%29.94 "Hg7 mi
3:55 PM70 °FStrong thunderstorms. Cloudy.7 mph100%29.93 "Hg1 mi
3:15 PM72 °FStrong thunderstorms. Mostly cloudy.10 mph100%29.92 "Hg0 mi
2:55 PM81 °FCloudy.13 mph74%29.90 "Hg10 mi
2:15 PM79 °FCloudy.8 mph79%29.92 "Hg10 mi
1:55 PM79 °FLight rain. Mostly cloudy.10 mph79%29.92 "Hg10 mi
1:15 PM77 °FMostly cloudy.7 mph83%29.92 "Hg10 mi
12:55 PM77 °FPartly sunny.8 mph83%29.92 "Hg10 mi
12:35 PM79 °FBroken clouds.6 mph79%29.92 "Hg10 mi
12:15 PM75 °FCloudy.6 mph89%29.92 "Hg10 mi
11:55 AM73 °FMore clouds than sun.8 mph94%29.93 "Hg10 mi
11:15 AM72 °FLow clouds.7 mph100%29.93 "Hg10 mi
10:55 AM72 °FLow clouds.No wind100%29.93 "Hg10 mi
10:15 AM72 °FMore clouds than sun.No wind100%29.93 "Hg7 mi
9:55 AM70 °FCloudy.No wind100%29.93 "Hg7 mi
9:15 AM70 °FFog.No wind100%29.93 "Hg5 mi
8:55 AM70 °FLight rain. Cloudy.No wind100%29.93 "Hg2 mi
8:15 AM70 °FHeavy rain. Low clouds.No wind100%29.92 "Hg1 mi
7:55 AM70 °FLight rain. Mostly cloudy.No wind100%29.92 "Hg2 mi
7:35 AM70 °FRain. More clouds than sun.No wind100%29.91 "Hg2 mi
7:15 AM70 °FDrizzle. Low clouds.No wind100%29.91 "Hg2 mi
6:55 AM68 °FLight rain. Low clouds.3 mph100%29.91 "Hg3 mi
6:15 AM68 °FFog.5 mph100%29.91 "Hg3 mi
5:55 AM68 °FDrizzle. Mostly cloudy.5 mph100%29.90 "Hg4 mi
5:15 AM68 °FLight rain. Mostly cloudy.3 mph100%29.90 "Hg4 mi
4:55 AM70 °FDrizzle. Mostly cloudy.3 mph100%29.90 "Hg5 mi
4:15 AM70 °FOvercast.5 mph94%29.91 "Hg7 mi
3:55 AM70 °FMostly cloudy.3 mph94%29.91 "Hg7 mi
3:15 AM70 °FMostly cloudy.5 mph94%29.91 "Hg10 mi
2:55 AM70 °FMostly cloudy.5 mph94%29.92 "Hg10 mi
2:15 AM70 °FPassing clouds.6 mph94%29.92 "Hg7 mi
1:55 AM70 °FOvercast.No wind94%29.93 "Hg7 mi
1:15 AM72 °FLight rain. Mostly cloudy.No wind88%29.93 "Hg10 mi
12:55 AM72 °FMostly cloudy.5 mph88%29.94 "Hg10 mi
12:15 AM72 °FPartly cloudy.5 mph88%29.95 "Hg10 mi
11:55 PM
Fri, Jul 3
72 °FPassing clouds.6 mph88%29.95 "Hg10 mi
11:35 PM72 °FOvercast.8 mph83%29.95 "Hg10 mi
11:15 PM72 °FMostly cloudy.6 mph83%29.95 "Hg10 mi
10:55 PM73 °FOvercast.9 mph78%29.95 "Hg10 mi
10:35 PM73 °FOvercast.9 mph78%29.95 "Hg10 mi
10:15 PM73 °FOvercast.9 mph78%29.95 "Hg10 mi
9:55 PM73 °FMostly cloudy.8 mph78%29.95 "Hg10 mi
9:35 PM73 °FMore clouds than sun.7 mph83%29.94 "Hg10 mi
9:15 PM73 °FBroken clouds.7 mph83%29.94 "Hg10 mi
8:55 PM73 °FPartly sunny.8 mph83%29.94 "Hg10 mi
8:35 PM73 °FPartly sunny.7 mph83%29.94 "Hg10 mi
8:15 PM73 °FScattered clouds.6 mph83%29.94 "Hg10 mi
Weather by CustomWeather, © 2015

See weather overviewHow to use our weather pages